Tracking 32936 objects as of 16-Jan-2026
HD Live streaming from Space Station
objects crossing your sky now

NORSAT 3

Track NORSAT 3 now!
10-day predictions


NORAD ID: 48272
Int'l Code: 2021-034E
Perigee: 556.8 km
Apogee: 568.8 km
Inclination: 97.6 °
Period: 95.8 minutes
Semi major axis: 6933 km
RCS: Unknown
Launch date: April 29, 2021
Source: Norway (NOR)
Launch site: FRENCH GUIANA (FRGUI)
Your satellite tracking list
Your tracking list is empty




NASA's NSSDC Master Catalog

Two Line Element Set (TLE):
1 48272U 21034E   26016.57395313  .00006291  00000-0  46336-3 0  9997
2 48272  97.5554  77.4799 0008646  97.7479 262.4729 15.03660027257040
Source of the keplerian elements: AFSPC